This is the latest recevied weather packets stored in our database for station/object K3CHZ. If no packets are shown the sender has not sent any weather packets the latest 10 day(s).
| Time | Temp. | Humidity | Pressure | Rain* | Wind** | Luminosity | Snow |
|---|---|---|---|---|---|---|---|
| 1777817840 | 10.56° C | 44% | 1017 hPa | 0 mm | - | - | - |
| 1777817540 | 10.56° C | 48% | 1017 hPa | 0 mm | - | - | - |
| 1777817240 | 10.56° C | 44% | 1017 hPa | 0 mm | - | - | - |
| 1777816940 | 10° C | 46% | 1016.9 hPa | 0 mm | - | - | - |
| 1777816641 | 10° C | 49% | 1017 hPa | 0 mm | - | - | - |
| 1777816340 | 10° C | 52% | 1017.1 hPa | 0 mm | - | - | - |
| 1777816041 | 9.44° C | 52% | 1017.1 hPa | 0 mm | - | - | - |
| 1777815740 | 9.44° C | 50% | 1017 hPa | 0 mm | - | - | - |
| 1777815441 | 8.89° C | 54% | 1016.9 hPa | 0 mm | - | - | - |
| 1777815140 | 8.33° C | 54% | 1017 hPa | 0 mm | - | - | - |
| 1777814837 | 8.33° C | 53% | 1017 hPa | 0 mm | - | - | - |
| 1777814538 | 8.33° C | 57% | 1017 hPa | 0 mm | - | - | - |
| 1777814237 | 7.78° C | 57% | 1017 hPa | 0 mm | - | - | - |
| 1777813937 | 7.78° C | 58% | 1016.9 hPa | 0 mm | - | - | - |
| 1777813637 | 7.22° C | 58% | 1016.9 hPa | 0 mm | - | - | - |
| 1777813338 | 7.22° C | 61% | 1017 hPa | 0 mm | - | - | - |
| 1777813039 | 7.22° C | 62% | 1017.1 hPa | 0 mm | - | - | - |
| 1777812737 | 6.67° C | 62% | 1017 hPa | 0 mm | - | - | - |
| 1777812440 | 6.67° C | 61% | 1016.9 hPa | 0 mm | - | - | - |
| 1777812137 | 6.67° C | 64% | 1016.8 hPa | 0 mm | - | - | - |
| 1777811838 | 6.67° C | 66% | 1016.8 hPa | 0 mm | - | - | - |
| 1777811537 | 6.11° C | 67% | 1016.8 hPa | 0 mm | - | - | - |
| 1777811238 | 6.11° C | 66% | 1016.8 hPa | 0 mm | - | - | - |
| 1777810940 | 5.56° C | 66% | 1016.7 hPa | 0 mm | - | - | - |
| 1777810641 | 5.56° C | 66% | 1016.7 hPa | 0 mm | - | - | - |
* Rain latest hour (hover to see other rain measurements)
** Current wind speed in m/s (hover to see current wind gust speed)